Regional Weather Roundup
Issued by NWS Green Bay, WI

Home | Current Version | Previous Version | Graphics & Text | Print | Product List | Glossary Off
Versions: 1 2 3 4 5 6 7 8 9 10 11 12 13 14 15 16 17 18 19 20 21 22 23 24 25 26 27 28 29 30 31 32 33 34 35 36 37 38 39 40 41 42 43 44 45 46 47 48 49 50

000
ASUS43 KGRB 010010
RWRGRB

NORTH-CENTRAL AND NORTHEAST WISCONSIN REGIONAL WEATHER ROUNDUP
NATIONAL WEATHER SERVICE GREEN BAY WI
700 PM CDT TUE SEP 30 2014

WIZ005-009-010>012-018-019-010100-
NORTH CENTRAL WISCONSIN

CITY           SKY/WX    TMP DP  RH WIND       PRES   REMARKS
IRONWOOD       NOT AVBL
MANITOWISH WTR CLEAR     46  44  94 CALM      30.00S
ARBOR VITAE    CLEAR     52  45  77 CALM      30.00S
EAGLE RIVER    CLEAR     50  42  72 CALM      30.01S
LAND O LAKES   CLEAR     47  44  91 E3        30.01F
RHINELANDER    CLEAR     50  42  74 SE5       30.01S
PHILLIPS       MOCLDY    51  43  73 E3        29.98S
ANTIGO         PTCLDY    45  42  90 SE6       30.03R
TOMAHAWK       PTCLDY    49  42  77 CALM      30.01S
MERRILL        PTCLDY    50  44  80 CALM      30.01S
$$

WIZ013-073-010100-
NORTHEAST WISCONSIN

CITY           SKY/WX    TMP DP  RH WIND       PRES   REMARKS
IRON MOUNTAIN  CLEAR     50  43  77 E8        30.03R
MARINETTE      NOT AVBL
OCONTO         CLOUDY    49  45  87 CALM      30.06S
$$

WIZ017-030-035>037-045-010100-
CENTRAL WISCONSIN

CITY           SKY/WX    TMP DP  RH WIND       PRES   REMARKS
MEDFORD        MOCLDY    48  42  80 SE3       30.00S
WAUSAU         MOCLDY    48  42  80 SE9       30.01S
MOSINEE        CLEAR     46  43  87 SE6       30.03S
MARSHFIELD     MOCLDY    48  42  80 SE8       30.01R
WISC RAPIDS    CLOUDY    49  42  77 SE7       30.04R
STEVENS POINT  CLOUDY    45  40  84 E8        30.03F
WAUPACA        CLOUDY    49  44  81 E6        30.05S
SHAWANO        CLOUDY    49  43  80 E7        30.05F
CLINTONVILLE   CLOUDY    46  41  81 SE5       30.05S
$$

WIZ038-039-048-051-010100-
FOX VALLEY

CITY           SKY/WX    TMP DP  RH WIND       PRES   REMARKS
NWS GREEN BAY  CLOUDY    49  44  83 E7        30.06S
APPLETON       CLOUDY    46  43  87 VRB6      30.05S
OSHKOSH        CLOUDY    49  44  83 E6        30.04S
FOND DU LAC    CLOUDY    49  42  77 E7        30.04F
$$

WIZ022-050-052-010100-
EAST CENTRAL WISCONSIN

CITY           SKY/WX    TMP DP  RH WIND       PRES   REMARKS
STURGEON BAY   NOT AVBL
MANITOWOC      NOT AVBL
SHEBOYGAN      CLOUDY    48  45  89 N7        30.04F
$$

LMZ563-521-522-541>543-010100-
LAKESHORE

STATION/POSITION TIME  TEMP    WIND        PRES    VSBY  WAVE
                       AIR SEA DIR/SP/G                  HT/PER
                 (UTC) (F)     (DEG/KT/KT) (MB)    (MI)  (FT/S)
SHEBOYGAN LKSHOR 0000   50 55   30/ 16/ 18 1017.7F
KEWAUNEE LKSHORE 0000   49      30/  7/ 12 1016.9R
NORTHPORT PIER   0000   51      30/  3/  4 1017.6S
N MID LAKE BUOY  0000   53 58   60/ 10/ 10 1017.9F         1
S GREEN BAY BUOY 0000   51     VRB 10/ 14  1018.6S
STURGEON BAY CG  0000   49 54   70/  9     1018.8      6   1
CHAMBERS ISLAND  0000   51      60/  8/  9 1017.9S
MENOMINEE LKSHOR 0000   51      40/  7/  9 1018.3S
$$


USA.gov is the U.S. government's official web portal to all federal, state and local government web resources and services.